Simultaneous Nadir Overpasses (SNOs) Predictions

Prediction of SNOs between NOAA-19 and TERRA Satellite Orbit:

Table of predicted SNOs for the next 14.0 days since TLE Epoch: 7/21/2018
Index Date (NOAA-19) Time (NOAA-19) Lat,Lon (NOAA-19) SZA (NOAA-19 ) Date (TERRA) Time (TERRA) Lat,Lon (TERRA) SZA (TERRA ) Distance(km) Time Diff (sec)
1 07/22/2018 05:23:55 77.27, 115.93 57.42 07/22/2018 05:23:50 77.24, 115.99 57.40 3.34 5
2 07/24/2018 10:57:25 -77.25,-147.30 122.13 07/24/2018 10:57:34 -77.27,-147.31 122.11 2.42 9
3 07/26/2018 16:31:04 77.28, -50.79 58.38 07/26/2018 16:31:17 77.27, -50.76 58.37 1.78 13
4 07/26/2018 17:21:59 -77.24, 116.71 121.65 07/26/2018 17:20:45 -77.25, 116.78 121.65 1.97 74
5 07/28/2018 22:04:34 -77.31, 45.80 121.09 07/28/2018 22:05:01 -77.30, 45.93 121.08 3.40 27
6 07/28/2018 22:55:38 77.26,-146.72 58.89 07/28/2018 22:54:28 77.24,-146.68 58.85 2.38 70
7 07/31/2018 03:38:13 77.32, 142.41 59.46 07/31/2018 03:38:44 77.29, 142.47 59.45 3.21 31
8 07/31/2018 04:29:07 -77.26, -50.02 120.57 07/31/2018 04:28:12 -77.27, -49.99 120.57 1.72 55
9 08/02/2018 09:11:42 -77.34,-120.96 119.96 08/02/2018 09:12:28 -77.33,-120.84 119.95 3.06 46




NCC Satellite Simultaneous Nadir Overpasses (SNOs) Prediction Service
